Location: Newark
(37.9800°N, 91.3000°W)
Time: 03:02:08
(UTC+00:00)

N. Korean satellite - Pass Details

Date: 30 October 2019
Orbit: 456 x 506 km, 97.2° (Epoch: 12 November)

Event Time Altitude Azimuth Distance (km) Brightness Sun altitude
Rises 11:33:04 0° 19° (NNE) 2,596 10.4 -11.5°
Reaches altitude 10° 11:35:14 10° 27° (NNE) 1,713 9.6 -11.1°
Maximum altitude 11:38:45 40° 98° (E) 752 8.2 -10.4°
Drops below altitude 10° 11:42:14 10° 170° (S) 1,712 9.6 -9.7°
Sets 11:44:24 0° 177° (S) 2,593 10.4 -9.3°
